sat.trackr.live / text

‹ back to catalog

STARLINK-5413

NORAD 54808 · 2022-175BC

PAYLOAD ACTIVE UNKNOWN

§ Identity

Operator
Country
US
Launch date
2022-12-17
Launch site
AFETR
Launch vehicle
Mass (kg)
RCS (m²)

Purposes: comms

External: N2YO · Heavens-Above · Gunter

§ Orbital elements

Epoch: 2026-09-20T22:00:03.000096Z

Period
93.85 min
Inclination
53.1681°
Eccentricity
0.0001120
Mean motion
15.34423793 rev/d
Perigee alt
461.9 km
Apogee alt
463.4 km
Semi-major
6,840.8 km
B*
-1.6618e-3
RAAN
215.4462°
Arg perigee
98.3866°
Mean anomaly
11.0491°
Rev number
574

§ Raw data

STARLINK-54131 54808U 22175BC  26263.91670139 -.00056149  00000+0 -16618-2 0  99972 54808  53.1681 215.4462 0001120  98.3866  11.0491 15.34423793  5742

JSON: /api/v1/satellites/54808 · /tle

For live sub-satellite position, see the globe view (requires WebGL).

§ Visibility from observer

Set your observer location to see the next 7 days of passes ≥ 10°. The values pass through the URL so the page stays shareable.

No JS? Fill the form by hand. The geolocation button needs JavaScript.